{"data":{"norad_id":46277,"intl_designator":"2020-061F","name":"NEMO-HD","alt_names":[],"object_type":"PAYLOAD","status":"ACTIVE","operator":null,"country":"SVN","launch_date":"2020-09-03","launch_site_code":"FRGUI","launch_vehicle":null,"mission":null,"orbit_class":"UNKNOWN","rcs_meters":null,"size_class":null,"mass_kg":null,"dimensions":null,"purposes":["earth_obs"],"wikipedia_slug":null,"has_3d_model":false,"image_url":null,"decayed_at":null,"tle_current":{"epoch":"2026-05-25T04:37:00.436224Z","epoch_age_seconds":65192,"freshness":"FRESH","line1":"1 46277U 20061F   26145.19236616  .00010801  00000+0  23830-3 0  9995","line2":"2 46277  97.1934 207.3844 0002728 108.2246 251.9300 15.44061920318432","mean_motion":15.4406192,"eccentricity":0.0002728,"inclination_deg":97.1934,"raan_deg":207.3844,"arg_perigee_deg":108.2246,"mean_anomaly_deg":251.93,"bstar":0.0002383,"rev_number":31843,"period_min":93.260508620017,"perigee_km":432.27744193764,"apogee_km":435.99421799367,"semimajor_km":6812.2728299657,"source":"CELESTRAK","updated_at":"2026-05-25T13:38:12.833108Z"}}}